Preview of NWS' New Version of Forecast
This preview is not operational and should not be used for support decisions.

Regional Weather Roundup (RWR)

Issued by National Weather Service (NWS)

                            
000
ASUS43 KDMX 172006
RWRIA 

WEATHER ROUNDUP FOR IOWA
NATIONAL WEATHER SERVICE DES MOINES IA
300 PM CDT TUE SEP 17 2019

NOTE: "FAIR" INDICATES FEW OR NO CLOUDS BELOW 12,000 FEET WITH NO
SIGNIFICANT WEATHER AND/OR OBSTRUCTIONS TO VISIBILITY.

* - THESE STATIONS ARE NOT NWS STATIONS...THUS NOT UNDER NWS
QUALITY CONTROL.  THEY ALSO DO NOT REPORT WEATHER SUCH 
AS PRECIPITATION OR FOG.  

IAZ001>003-012>014-020>022-031>034-043>046-172100-
   NORTHWEST IOWA
  
CITY           SKY/WX    TMP DP  RH WIND       PRES   REMARKS
CARROLL *      MOSUNNY   90  70  51 S17G25    29.94F HX  95           
CHEROKEE *     SUNNY     88  67  49 S21G29    29.90F HX  90           
DENISON *      SUNNY     90  72  55 S18G26    29.94F HX  96           
LE MARS *      SUNNY     88  70  55 S26G32    29.86F HX  92           
SHELDON *      SUNNY     88  73  62 S16G29    29.87F HX  96           
SIOUX CITY     SUNNY     87  70  56 S23G36    29.86F HX  92           
SPENCER        SUNNY     90  69  50 S24G32    29.91F HX  94           
STORM LAKE *   SUNNY     88  68  51 S21G29    29.90F HX  91           
$$
 
IAZ055>058-069>071-079>083-090>094-172100-
   SOUTHWEST IOWA
  
CITY           SKY/WX    TMP DP  RH WIND       PRES   REMARKS
ATLANTIC *     SUNNY     90  68  48 S17G26    29.94F HX  93           
AUDUBON *        N/A     88  70  55 S16G22    29.97F HX  92           
CLARINDA *     SUNNY     90  72  55 S14       29.98F HX  96           
COUNCIL BLFS * SUNNY     90  66  45 S21G31    29.91F HX  92           
CRESTON *      SUNNY     90  66  45 S17       29.99F HX  92           
HARLAN  *      SUNNY     90  70  51 S17G24    29.94F HX  95           
LAMONI         SUNNY     89  66  46 S10G21    30.01F HX  91           
RED OAK *      SUNNY     90  70  51 S17G25    29.95F HAZE    HX  95   
SHENANDOAH *   SUNNY     91  70  49 S15       29.94F HX  97           
$$
 
IAZ047>049-059>061-072>074-084-172100-
   CENTRAL IOWA
  
CITY           SKY/WX    TMP DP  RH WIND       PRES   REMARKS
AMES           SUNNY     89  70  53 S16       29.99F HX  94           
ANKENY *       SUNNY     90  73  58 S7G15     29.99F HX  98           
BOONE *        MOSUNNY   88  72  58 S9G21     29.98F HX  94           
CHARITON *     SUNNY     90  72  55 S12G17    30.00F HAZE    HX  96   
DES MOINES     MOSUNNY   89  69  51 S16       29.98F HX  93           
GRINNELL*      SUNNY     84  72  67 SE13      30.04F HX  89           
KNOXVILLE *    SUNNY     88  73  62 SE15      30.00F HX  96           
MARSHALLTOWN   SUNNY     85  73  67 SE16G22   30.01F HX  91           
NEWTON *       SUNNY     88  73  62 SE15      30.00F HX  96           
PELLA *        SUNNY     89  69  50 SE12      30.02F HX  94           
PERRY *        FAIR      91  67  45 S9G17     29.97F HX  94           
$$
 
IAZ004>006-015-016-023>025-035-036-172100-
   NORTH CENTRAL IOWA
  
CITY           SKY/WX    TMP DP  RH WIND       PRES   REMARKS
ALGONA *       SUNNY     88  72  58 S20G26    29.94F HX  94           
CLARION *      SUNNY     90  72  55 S16G24    29.98F HX  96           
ESTHERVILLE    SUNNY     85  69  58 S24G36    29.92F HX  89           
FORT DODGE *   SUNNY     88  71  57 S12G23    29.97F HX  94           
MASON CITY     SUNNY     87  68  52 S16       30.00F HX  90           
FOREST CITY *  FAIR      88  70  55 S17G24    29.97F HX  92           
IOWA FALLS *     N/A     86  67  52 SE15      30.02F HX  89           
$$

IAZ007>011-017>019-026>030-037>042-050>054-066-172100-
   NORTHEAST IOWA
  
CITY           SKY/WX    TMP DP  RH WIND       PRES   REMARKS
CEDAR RAPIDS   FAIR      77  66  68 SE12      30.07F                  
CHARLES CITY * FAIR      84  70  61 SE16      30.02F HX  88           
CLINTON *      FAIR      79  69  71 SE14      30.10F HX  81           
DECORAH *      FAIR      79  68  69 SE10G16   30.05S HX  81           
DUBUQUE        FAIR      74  67  78 SE14G20   30.11F                  
MONTICELLO *   FAIR      77  68  73 S10       30.09F                  
OELWEIN *      SUNNY     81  72  74 SE16G22   30.06F HX  84           
WATERLOO       FAIR      87  68  52 S17       30.02F HX  90           
$$
 
IAZ064-065-067-068-078-172100-
   EAST CENTRAL IOWA
  
CITY           SKY/WX    TMP DP  RH WIND       PRES   REMARKS
DAVENPORT      FAIR      79  68  69 SE10      30.10F HX  81           
IOWA CITY      FAIR      81  66  60 SE10      30.08F HX  83           
MUSCATINE *    FAIR      82  68  61 E14       30.07F HX  85           
QUAD CITIES    FAIR      81  69  67 SE8       30.08F HX  84           
$$
 
IAZ062-063-075>077-085>089-095>099-172100-
   SOUTHEAST IOWA
  
CITY           SKY/WX    TMP DP  RH WIND       PRES   REMARKS
BURLINGTON     SUNNY     83  69  62 SE7       30.07F HX  86           
FAIRFIELD *    SUNNY     82  73  74 SE10      30.05F HX  88           
FORT MADISON * SUNNY     82  72  69 E6        30.07F HX  87           
KEOKUK *       SUNNY     84  72  65 E10       30.05F HX  89           
OSKALOOSA *    FAIR      85  69  59 SE9       30.04F HX  88           
CENTERVILLE *  FAIR      88  75  66 SE8       30.04F HX  97           
OTTUMWA        SUNNY     84  71  65 SE12      30.03F HX  89           
WASHINGTON *     N/A    N/A N/A N/A MISG        N/A                   
$$

ABBREVIATIONS USED IN REMARKS
   TC - TEMPERATURES IN CELSIUS
  WCI - WIND CHILL INDEX
   HX - HEAT INDEX
  VSB - VISIBILITY  
$$